METEOR 2-17 DEB

Satellite information

Favourite Embed

Satellite Type and Status

DEBRISIN ORBIT

Key statistics

Satellite METEOR 2-17 DEB at a glance.

Uptime

13780

Days in orbit

Revolutions

≈ 14.0

Per day

Orbit

LEO

Low Earth Orbit

Inclination

82.5

Latest

Satellite identification and parameters

Extended collection of information and parameters for METEOR 2-17 DEB.

Object identification

Identified? True

Debris? True

Object name: METEOR 2-17 DEB

International designator: 1988-005AK

Object number (NORAD): 38282

Object ID (CCSDS): 38282

Country: COMMONWEALTH OF INDEPENDENT STATES (CIS)

Current information (Y/N): Y

RCS size: SMALL

Orbital parameters

Period: 102.696 minutes

Inclination: 82.5322 deg

SMA: 7264.321 km

Apoapsis: 904.84 km

Periapsis: 867.531 km

RAAN: 100.8985 deg

Eccentricy: 0.00256798

Argument of periapsis: 219.619 deg

Mean anomaly: 140.3104 deg

Mean motion: 14.02200975 rev/day

Mean motion (dot): 0.0000256 rev/day2

B* drag term: 0.0016594333 1/REarth

Two-line elements (TLE)

Creation date: Oct. 13, 2025, 10:50 a.m.

Reference frame: TEME

Reference center: EARTH

Epoch: Oct. 13, 2025, 4:41 a.m. UTC

TLE line 0: 0 METEOR 2-17 DEB

TLE line 1: 1 38282U 88005AK 25286.19579180 .00002560 00000-0 16594-2 0 9997

TLE line 2: 2 38282 82.5322 100.8985 0025680 219.6190 140.3104 14.02200975 76250

Live tracking on map

Real-time ground track for satellite METEOR 2-17 DEB.

In-orbit conjunctions

A list of the most updated potential collisions computed for object METEOR 2-17 DEB.

Target Orbit TCA Probability of collision Miss distance Type
CZ-6A R/B DEB LEO 2025-05-20 17:16:57 0.0001556375 916.0 (m) DEBRIS
GGSE 5 LEO 2024-09-03 17:25:38 0.0001102703 195.0 (m) PAYLOAD

Associated space launch

Second generation soviet meteorological satellite

METEOR 2-17 DEB was lifted into orbit during the mission ‘Tsiklon-3 | Meteor-2 17’, on board a Tsiklon-3 space rocket.

The launch took place on Jan. 30, 1988, 10:59 a.m. from 32/1.

For more information about the launch, click the button.

Launch to space Tsiklon-3 | Meteor-2 17
Tsiklon-3 | Meteor-2 17

Agency: N/A

Status: Launch Successful

Launch date: Jan. 30, 1988, 10:59 a.m. UTC

Rocket: Tsiklon-3

Launch pad: 32/1

Location: Plesetsk Cosmodrome, Russian Federation

...

Latest news about this satellite

There are no fresh news available about this satellite. Check back as we update our databases every day.


Newsletter sign-up

Weekly statistics, charts and insights to help you stay on top of the space industry.